CZ-6A DEB, 60804

Orbit data source: Space-Track

CZ-6A DEB, 60804 is space debris in LEO originally from a launch on Tue, 06 Aug 2024 UTC launched from the Taiyaun Space Center, China (TSC). Debris objects in space refer to the collection of defunct objects orbiting the Earth. Examples of debris include non-operational satellites, rocket bodies, and fragments generated from explosions, collisions, or faulty payload assembly.

Loading next visibility...
Identifier
60804, 2024-140GF
Orbit
LEO
Country
Flag of CNCN / PRC
Related business
Manufacturer
SAST
Mission
Spacecraft
Bus & Motor
Unknown
Mass
Unknown
Launch date (UTC)
2024-08-06 (1 year ago)
Launch vehicle
Unknown
Launch site
Taiyaun Space Center, China (TSC)
Object type
Payload
Rocket body
Debris
Shape & HBR
Unknown shape, 0.2 m
Radar Cross Section
Small (<0.1 m²)

Expand to show TLE details & history
Last TLE update: 1 day ago

TLE from 1 day ago
0 CZ-6A DEB
1 60804U 24140GF  25312.24471818  .00000474  00000-0  23942-3 0  9995
2 60804  89.0387 302.4136 0075446 181.7409 178.3527 14.13122289 63128
Epoch: 2025-11-08T05:52Z
TLE epoch observation values (Epoch: 2025-11-08T05:52:23.650Z)
Latitude
-0.00001°
Longitude
166.63795°
Altitude
906.263 km
Speed
7.371 km/s
True Right ascension
20h 09m 39s
True Declination
0° 00' 00"
Sunlit
Object was in daylight at epoch
Visualization orbit readout
Latitude
Unknown
Longitude
Unknown
Altitude
Unknown
Speed
Unknown
Apparent Right ascension
Unknown
Apparent Declination
Unknown
Sunlit
N/A
Visualization observer readout
Local Sidereal Time
08:52:25
Azimuth
Unknown
Elevation
Unknown
Doppler factor
Unknown
Orbital elements
Apogee altitude
900.168 km
Perigee altitude
791.167 km
Semi-major axis
7,223.805 km
Eccentricity
0.00754
Inclination
89.0387°
RAAN
302.4136°
Arg. of periapsis
181.7409°
True anomaly
178.37732°
Mean anomaly
178.3527°
Eccentric anomaly
178.36503°
Mean motion
3.53504 °/min
Orbital period
101.84 mins
BSTAR
0.00023942
Loading maneuver chart data...
Computing Atmospheric mass density...
Loading historical data...
Loading historical data...
Loading historical data...
Loading historical data...
Loading historical data...
Loading historical data...
Loading historical data...

Documentation

Showing up to 5 results
|